SWA3396 KMDW-KSTL

Flight info

Callsign SWA3396
Flight time 0h 45m
Altitude 28000
Route BACEN BLOKR RBS AARCH2
Aircraft B38M/M-SADE2E3GHIJ4J7P2RWZ/LB1D1

Departure

Time 2026-05-05 23:22
Airport Chicago Midway International Airport (KMDW)

Arrival

Time 2026-05-06 00:08
Airport St. Louis Lambert International Airport (KSTL)
Time Latitude Longitude Altitude Speed Heading
2026-05-05 23:09 41.78730 -87.74559 632 ft 0 kts 134°
2026-05-05 23:13 41.78738 -87.74570 636 ft 2 kts 136°
2026-05-05 23:13 41.78750 -87.74585 637 ft 2 kts 141°
2026-05-05 23:13 41.78763 -87.74597 636 ft 2 kts 161°
2026-05-05 23:13 41.78779 -87.74595 632 ft 2 kts 220°
2026-05-05 23:14 41.78783 -87.74590 632 ft 0 kts 226°
2026-05-05 23:15 41.78783 -87.74589 632 ft 0 kts 226°
2026-05-05 23:17 41.78779 -87.74598 632 ft 2 kts 240°
2026-05-05 23:17 41.78770 -87.74636 635 ft 10 kts 250°
2026-05-05 23:17 41.78735 -87.74730 635 ft 14 kts 239°
2026-05-05 23:18 41.78640 -87.74787 634 ft 19 kts 169°
2026-05-05 23:18 41.78534 -87.74683 635 ft 19 kts 132°
2026-05-05 23:18 41.78442 -87.74549 637 ft 20 kts 133°
2026-05-05 23:18 41.78342 -87.74404 631 ft 22 kts 134°
2026-05-05 23:19 41.78206 -87.74320 633 ft 22 kts 158°
2026-05-05 23:19 41.78151 -87.74308 631 ft 0 kts 179°
2026-05-05 23:20 41.78129 -87.74307 635 ft 9 kts 176°
2026-05-05 23:21 41.78005 -87.74301 635 ft 23 kts 191°
2026-05-05 23:21 41.77962 -87.74339 637 ft 0 kts 216°
2026-05-05 23:21 41.77949 -87.74356 630 ft 8 kts 233°
2026-05-05 23:21 41.77976 -87.74447 630 ft 15 kts 311°
2026-05-05 23:22 41.78221 -87.74796 634 ft 92 kts 313°
2026-05-05 23:22 41.78834 -87.75663 633 ft 162 kts 314°
2026-05-05 23:22 41.79684 -87.76841 1185 ft 181 kts 313°
2026-05-05 23:22 41.80209 -87.78260 2271 ft 176 kts 281°
2026-05-05 23:23 41.79996 -87.79987 2508 ft 208 kts 244°
2026-05-05 23:23 41.79012 -87.81578 2829 ft 235 kts 225°
2026-05-05 23:23 41.77564 -87.82786 3253 ft 258 kts 205°
2026-05-05 23:23 41.75864 -87.83695 3938 ft 264 kts 205°
2026-05-05 23:24 41.74143 -87.84627 4712 ft 268 kts 204°
2026-05-05 23:24 41.72410 -87.85574 5495 ft 271 kts 205°
2026-05-05 23:24 41.70655 -87.86538 6270 ft 274 kts 206°
2026-05-05 23:24 41.68886 -87.87510 7030 ft 275 kts 206°
2026-05-05 23:25 41.67126 -87.88479 7874 ft 273 kts 206°
2026-05-05 23:25 41.65380 -87.89439 8754 ft 270 kts 207°
2026-05-05 23:25 41.63642 -87.90394 9596 ft 270 kts 207°
2026-05-05 23:25 41.61906 -87.91349 10300 ft 272 kts 207°
2026-05-05 23:26 41.60098 -87.92345 10577 ft 291 kts 207°
2026-05-05 23:26 41.58167 -87.93410 10776 ft 310 kts 207°
2026-05-05 23:26 41.56134 -87.94528 11067 ft 324 kts 207°
2026-05-05 23:26 41.54010 -87.95694 11444 ft 335 kts 207°
2026-05-05 23:27 41.51834 -87.96885 11998 ft 340 kts 207°
2026-05-05 23:27 41.49633 -87.98088 12680 ft 343 kts 207°
2026-05-05 23:27 41.47413 -87.99300 13352 ft 347 kts 208°
2026-05-05 23:27 41.45172 -88.00521 14005 ft 350 kts 208°
2026-05-05 23:28 41.42909 -88.01752 14673 ft 351 kts 208°
2026-05-05 23:28 41.40634 -88.02952 15383 ft 355 kts 203°
2026-05-05 23:28 41.38219 -88.03754 16089 ft 358 kts 199°
2026-05-05 23:28 41.35804 -88.04562 16783 ft 359 kts 200°
2026-05-05 23:29 41.33390 -88.05394 17461 ft 360 kts 200°
2026-05-05 23:29 41.30963 -88.06259 18072 ft 362 kts 200°
2026-05-05 23:29 41.28522 -88.07111 18631 ft 364 kts 200°
2026-05-05 23:29 41.26059 -88.07960 19148 ft 367 kts 200°
2026-05-05 23:30 41.23546 -88.08505 19659 ft 375 kts 192°
2026-05-05 23:30 41.20942 -88.08820 20175 ft 377 kts 192°
2026-05-05 23:30 41.18314 -88.09146 20690 ft 380 kts 192°
2026-05-05 23:30 41.15666 -88.09471 21175 ft 383 kts 193°
2026-05-05 23:31 41.13011 -88.09796 21712 ft 385 kts 193°
2026-05-05 23:31 41.10335 -88.10122 22170 ft 388 kts 193°
2026-05-05 23:31 41.07646 -88.10449 22671 ft 390 kts 193°
2026-05-05 23:31 41.04934 -88.10779 23164 ft 393 kts 193°
2026-05-05 23:32 41.02204 -88.11111 23627 ft 395 kts 193°
2026-05-05 23:32 40.99458 -88.11445 24039 ft 398 kts 193°
2026-05-05 23:32 40.96691 -88.11781 24452 ft 400 kts 194°
2026-05-05 23:32 40.93916 -88.12117 24874 ft 402 kts 194°
2026-05-05 23:33 40.91119 -88.12456 25289 ft 405 kts 194°
2026-05-05 23:33 40.88300 -88.12798 25678 ft 408 kts 193°
2026-05-05 23:33 40.85460 -88.13141 26019 ft 412 kts 193°
2026-05-05 23:33 40.82609 -88.13486 26411 ft 414 kts 194°
2026-05-05 23:34 40.79726 -88.13834 26787 ft 417 kts 194°
2026-05-05 23:34 40.76829 -88.14184 27156 ft 419 kts 194°
2026-05-05 23:34 40.73916 -88.14535 27524 ft 422 kts 194°
2026-05-05 23:34 40.70981 -88.14889 27839 ft 426 kts 194°
2026-05-05 23:35 40.68006 -88.15246 27914 ft 432 kts 194°
2026-05-05 23:35 40.64986 -88.15609 27892 ft 438 kts 194°
2026-05-05 23:35 40.61946 -88.15974 27903 ft 439 kts 194°
2026-05-05 23:35 40.58919 -88.16382 27895 ft 434 kts 198°
2026-05-05 23:36 40.56091 -88.17505 27916 ft 421 kts 208°
2026-05-05 23:36 40.53313 -88.18788 27891 ft 424 kts 207°
2026-05-05 23:36 40.50535 -88.20075 27902 ft 423 kts 207°
2026-05-05 23:36 40.47757 -88.21380 27900 ft 423 kts 207°
2026-05-05 23:37 40.44988 -88.22688 27870 ft 424 kts 207°
2026-05-05 23:37 40.42202 -88.24006 27886 ft 427 kts 207°
2026-05-05 23:37 40.39404 -88.25329 27893 ft 428 kts 207°
2026-05-05 23:37 40.36603 -88.26653 27896 ft 427 kts 207°
2026-05-05 23:38 40.33813 -88.27971 27898 ft 427 kts 207°
2026-05-05 23:38 40.31015 -88.29292 27899 ft 427 kts 207°
2026-05-05 23:38 40.28220 -88.30609 27897 ft 427 kts 207°
2026-05-05 23:38 40.25419 -88.31929 27900 ft 427 kts 207°
2026-05-05 23:39 40.22622 -88.33246 27866 ft 428 kts 207°
2026-05-05 23:39 40.19811 -88.34568 27905 ft 430 kts 207°
2026-05-05 23:39 40.16992 -88.35892 27904 ft 431 kts 207°
2026-05-05 23:39 40.14176 -88.37214 27895 ft 430 kts 207°
2026-05-05 23:40 40.11365 -88.38532 27895 ft 430 kts 207°
2026-05-05 23:40 40.08581 -88.39837 27898 ft 430 kts 207°
2026-05-05 23:40 40.05726 -88.41173 27893 ft 430 kts 207°
2026-05-05 23:40 40.02943 -88.42474 27900 ft 430 kts 207°
2026-05-05 23:41 40.00121 -88.43793 27869 ft 432 kts 207°
2026-05-05 23:41 39.97281 -88.45119 27883 ft 435 kts 207°
2026-05-05 23:41 39.94434 -88.46445 27893 ft 435 kts 207°
2026-05-05 23:41 39.91579 -88.47772 27903 ft 435 kts 207°
2026-05-05 23:42 39.88743 -88.49087 27900 ft 434 kts 207°
2026-05-05 23:42 39.86819 -88.49980 27900 ft 434 kts 207°
2026-05-05 23:42 39.83976 -88.51299 27900 ft 434 kts 208°
2026-05-05 23:42 39.81133 -88.52621 27900 ft 434 kts 208°
2026-05-05 23:43 39.78331 -88.53922 27876 ft 434 kts 208°
2026-05-05 23:43 39.75476 -88.55247 27893 ft 437 kts 208°
2026-05-05 23:43 39.72574 -88.56592 27894 ft 438 kts 208°
2026-05-05 23:43 39.69742 -88.57903 27898 ft 437 kts 208°
2026-05-05 23:44 39.66879 -88.59228 27899 ft 437 kts 208°
2026-05-05 23:44 39.64018 -88.60551 27900 ft 437 kts 208°
2026-05-05 23:44 39.61151 -88.61885 27897 ft 436 kts 210°
2026-05-05 23:44 39.58554 -88.63705 27621 ft 416 kts 222°
2026-05-05 23:45 39.56288 -88.66075 26303 ft 423 kts 226°
2026-05-05 23:45 39.54011 -88.68469 25665 ft 418 kts 225°
2026-05-05 23:45 39.51787 -88.70833 25132 ft 411 kts 225°
2026-05-05 23:45 39.49600 -88.73176 24558 ft 406 kts 225°
2026-05-05 23:46 39.47434 -88.75504 23977 ft 402 kts 224°
2026-05-05 23:46 39.45294 -88.77808 23393 ft 399 kts 224°
2026-05-05 23:46 39.43172 -88.80091 22729 ft 395 kts 224°
2026-05-05 23:46 39.41070 -88.82352 22141 ft 391 kts 224°
2026-05-05 23:47 39.38991 -88.84586 21578 ft 386 kts 224°
2026-05-05 23:47 39.36938 -88.86789 21025 ft 382 kts 224°
2026-05-05 23:47 39.34914 -88.88959 20723 ft 372 kts 224°
2026-05-05 23:47 39.32955 -88.91059 20491 ft 360 kts 224°
2026-05-05 23:48 39.31056 -88.93093 20304 ft 349 kts 224°
2026-05-05 23:48 39.29214 -88.95064 20131 ft 339 kts 224°
2026-05-05 23:48 39.27427 -88.96976 19936 ft 330 kts 224°
2026-05-05 23:48 39.25672 -88.98854 19519 ft 328 kts 224°
2026-05-05 23:49 39.23927 -89.00720 19187 ft 324 kts 224°
2026-05-05 23:49 39.22203 -89.02562 18837 ft 321 kts 224°
2026-05-05 23:49 39.20493 -89.04389 18491 ft 317 kts 224°
2026-05-05 23:49 39.18803 -89.06193 18142 ft 315 kts 224°
2026-05-05 23:50 39.17113 -89.07995 17786 ft 317 kts 224°
2026-05-05 23:50 39.15401 -89.09820 17453 ft 322 kts 224°
2026-05-05 23:50 39.13677 -89.11657 17100 ft 322 kts 224°
2026-05-05 23:50 39.11951 -89.13495 16747 ft 321 kts 224°
2026-05-05 23:51 39.10293 -89.15386 16321 ft 316 kts 233°
2026-05-05 23:51 39.09225 -89.17794 15967 ft 308 kts 251°
2026-05-05 23:51 39.08559 -89.20393 15649 ft 303 kts 252°
2026-05-05 23:51 39.07932 -89.22953 15328 ft 299 kts 253°
2026-05-05 23:52 39.07330 -89.25499 15011 ft 295 kts 253°
2026-05-05 23:52 39.06749 -89.28009 14691 ft 292 kts 253°
2026-05-05 23:52 39.06178 -89.30503 14370 ft 289 kts 253°
2026-05-05 23:52 39.05612 -89.32997 14054 ft 293 kts 253°
2026-05-05 23:53 39.05038 -89.35533 13731 ft 297 kts 253°
2026-05-05 23:53 39.04462 -89.38084 13364 ft 297 kts 253°
2026-05-05 23:53 39.03887 -89.40631 13011 ft 296 kts 253°
2026-05-05 23:53 39.03314 -89.43168 12681 ft 295 kts 253°
2026-05-05 23:54 39.02750 -89.45661 12352 ft 294 kts 253°
2026-05-05 23:54 39.02180 -89.48179 12020 ft 293 kts 253°
2026-05-05 23:54 39.01612 -89.50685 11699 ft 292 kts 252°
2026-05-05 23:54 39.01047 -89.53173 11373 ft 290 kts 252°
2026-05-05 23:55 39.00483 -89.55658 11049 ft 289 kts 252°
2026-05-05 23:55 38.99904 -89.58122 10784 ft 285 kts 248°
2026-05-05 23:55 38.98839 -89.60207 10605 ft 277 kts 228°
2026-05-05 23:55 38.97519 -89.61944 10483 ft 267 kts 228°
2026-05-05 23:56 38.96240 -89.63616 10359 ft 258 kts 227°
2026-05-05 23:56 38.94999 -89.65220 10236 ft 249 kts 227°
2026-05-05 23:56 38.93796 -89.66761 10122 ft 240 kts 227°
2026-05-05 23:56 38.92633 -89.68243 9994 ft 231 kts 227°
2026-05-05 23:57 38.91494 -89.69691 9854 ft 233 kts 227°
2026-05-05 23:57 38.90329 -89.71168 9697 ft 238 kts 227°
2026-05-05 23:57 38.89144 -89.72669 9516 ft 240 kts 227°
2026-05-05 23:57 38.87952 -89.74176 9347 ft 241 kts 226°
2026-05-05 23:58 38.86751 -89.75693 9208 ft 242 kts 226°
2026-05-05 23:58 38.85550 -89.77210 9052 ft 242 kts 226°
2026-05-05 23:58 38.84352 -89.78721 8880 ft 243 kts 226°
2026-05-05 23:58 38.83149 -89.80239 8716 ft 243 kts 226°
2026-05-05 23:59 38.81942 -89.81762 8535 ft 243 kts 226°
2026-05-05 23:59 38.80735 -89.83283 8380 ft 244 kts 226°
2026-05-05 23:59 38.79528 -89.84803 8278 ft 244 kts 226°
2026-05-05 23:59 38.78316 -89.86330 8201 ft 245 kts 226°
2026-05-06 00:00 38.77099 -89.87863 8059 ft 245 kts 226°
2026-05-06 00:00 38.75887 -89.89396 7809 ft 246 kts 226°
2026-05-06 00:00 38.74669 -89.90942 7499 ft 247 kts 226°
2026-05-06 00:00 38.73446 -89.92494 7219 ft 248 kts 226°
2026-05-06 00:01 38.72219 -89.94050 6937 ft 248 kts 226°
2026-05-06 00:01 38.71115 -89.95727 6609 ft 247 kts 241°
2026-05-06 00:01 38.70579 -89.97790 6340 ft 243 kts 261°
2026-05-06 00:01 38.70452 -89.99937 6023 ft 241 kts 264°
2026-05-06 00:02 38.70053 -90.02004 5692 ft 239 kts 253°
2026-05-06 00:02 38.69555 -90.03993 5381 ft 237 kts 254°
2026-05-06 00:02 38.69063 -90.05998 5084 ft 235 kts 255°
2026-05-06 00:02 38.68580 -90.07986 4758 ft 233 kts 255°
2026-05-06 00:03 38.68112 -90.09929 4495 ft 225 kts 255°
2026-05-06 00:03 38.67660 -90.11811 4225 ft 215 kts 255°
2026-05-06 00:03 38.67236 -90.13595 3972 ft 205 kts 255°
2026-05-06 00:03 38.66827 -90.15304 3744 ft 197 kts 257°
2026-05-06 00:04 38.66451 -90.16957 3529 ft 189 kts 265°
2026-05-06 00:04 38.66544 -90.18555 3304 ft 174 kts 291°
2026-05-06 00:04 38.67001 -90.19954 3151 ft 170 kts 304°
2026-05-06 00:04 38.67596 -90.21244 2941 ft 168 kts 307°
2026-05-06 00:05 38.68825 -90.23750 2524 ft 160 kts 308°
2026-05-06 00:05 38.69393 -90.24912 2349 ft 150 kts 308°
2026-05-06 00:05 38.69945 -90.26027 2137 ft 146 kts 308°
2026-05-06 00:06 38.70484 -90.27115 1931 ft 144 kts 307°
2026-05-06 00:06 38.71021 -90.28200 1748 ft 145 kts 306°
2026-05-06 00:06 38.71557 -90.29293 1549 ft 145 kts 307°
2026-05-06 00:06 38.72096 -90.30381 1329 ft 145 kts 306°
2026-05-06 00:07 38.72632 -90.31476 1121 ft 145 kts 306°
2026-05-06 00:07 38.73173 -90.32564 938 ft 146 kts 307°
2026-05-06 00:07 38.73718 -90.33665 721 ft 146 kts 306°
2026-05-06 00:07 38.74228 -90.34696 624 ft 128 kts 307°
2026-05-06 00:08 38.74589 -90.35438 627 ft 62 kts 304°
2026-05-06 00:08 38.74732 -90.35787 627 ft 37 kts 287°
2026-05-06 00:08 38.74738 -90.36045 631 ft 22 kts 232°
2026-05-06 00:08 38.74640 -90.36027 628 ft 15 kts 108°
2026-05-06 00:09 38.74609 -90.35908 626 ft 13 kts 108°
2026-05-06 00:09 38.74583 -90.35813 629 ft 10 kts 124°
2026-05-06 00:09 38.74539 -90.35730 631 ft 18 kts 124°
2026-05-06 00:09 38.74567 -90.35640 628 ft 11 kts 354°
2026-05-06 00:10 38.74610 -90.35617 623 ft 7 kts 83°
2026-05-06 00:10 38.74604 -90.35603 623 ft 3 kts 138°
2026-05-06 00:10 38.74556 -90.35630 632 ft 10 kts 214°
2026-05-06 00:10 38.74477 -90.35640 624 ft 13 kts 180°
2026-05-06 00:11 38.74380 -90.35636 624 ft 13 kts 178°
2026-05-06 00:11 38.74296 -90.35633 620 ft 11 kts 178°
2026-05-06 00:11 38.74195 -90.35636 622 ft 19 kts 185°
2026-05-06 00:11 38.74080 -90.35561 619 ft 18 kts 142°
2026-05-06 00:12 38.73977 -90.35492 628 ft 15 kts 153°
2026-05-06 00:12 38.73890 -90.35444 630 ft 5 kts 180°
2026-05-06 00:12 38.73874 -90.35447 625 ft 9 kts 193°
2026-05-06 00:12 38.73831 -90.35449 625 ft 2 kts 207°
2026-05-06 00:13 38.73819 -90.35465 623 ft 3 kts 230°
2026-05-06 00:13 38.73793 -90.35494 622 ft 5 kts 216°
2026-05-06 00:13 38.73777 -90.35507 628 ft 0 kts 213°
2026-05-06 00:17 38.73778 -90.35507 628 ft 0 kts 213°